DGDRP EDFE-LKKV

Flight info

Callsign DGDRP
Flight time 1h 0m
Altitude 19000
Route CHA DCT LOHRE DCT OSBIT L984 OKG
Aircraft B58T/L-SDFGRY/C

Departure

Time 2026-05-07 19:54
Airport Frankfurt-Egelsbach Airport (EDFE)

Arrival

Time 2026-05-07 20:55
Airport Karlovy Vary Airport (LKKV)
Time Latitude Longitude Altitude Speed Heading
2026-05-07 19:37 49.96224 8.64291 387 ft 0 kts 265°
2026-05-07 19:49 49.96224 8.64289 387 ft 2 kts 265°
2026-05-07 19:49 49.96198 8.64224 387 ft 13 kts 218°
2026-05-07 19:49 49.96162 8.64093 388 ft 16 kts 268°
2026-05-07 19:50 49.96153 8.63896 387 ft 20 kts 266°
2026-05-07 19:50 49.96141 8.63682 387 ft 20 kts 258°
2026-05-07 19:50 49.96129 8.63512 387 ft 9 kts 264°
2026-05-07 19:50 49.96130 8.63432 387 ft 8 kts 272°
2026-05-07 19:51 49.96127 8.63349 387 ft 0 kts 265°
2026-05-07 19:52 49.96126 8.63340 387 ft 4 kts 267°
2026-05-07 19:52 49.96124 8.63290 387 ft 9 kts 259°
2026-05-07 19:52 49.96089 8.63212 387 ft 10 kts 219°
2026-05-07 19:52 49.96039 8.63194 385 ft 6 kts 115°
2026-05-07 19:53 49.96038 8.63218 385 ft 0 kts 85°
2026-05-07 19:54 49.96053 8.63507 385 ft 71 kts 87°
2026-05-07 19:54 49.96097 8.64559 542 ft 109 kts 83°
2026-05-07 19:54 49.96190 8.65741 1022 ft 111 kts 81°
2026-05-07 19:55 49.96294 8.67020 1189 ft 128 kts 82°
2026-05-07 19:55 49.96403 8.68409 1230 ft 132 kts 82°
2026-05-07 19:55 49.96549 8.69805 1333 ft 130 kts 77°
2026-05-07 19:55 49.96635 8.71210 1392 ft 133 kts 86°
2026-05-07 19:56 49.96582 8.72673 1395 ft 138 kts 97°
2026-05-07 19:56 49.96438 8.74158 1404 ft 140 kts 96°
2026-05-07 19:56 49.96244 8.75656 1403 ft 143 kts 101°
2026-05-07 19:56 49.96013 8.77161 1400 ft 144 kts 101°
2026-05-07 19:57 49.95791 8.78681 1402 ft 145 kts 101°
2026-05-07 19:57 49.95574 8.80171 1402 ft 142 kts 101°
2026-05-07 19:57 49.95358 8.81665 1398 ft 141 kts 101°
2026-05-07 19:57 49.95144 8.83150 1395 ft 141 kts 101°
2026-05-07 19:58 49.94930 8.84630 1392 ft 140 kts 101°
2026-05-07 19:58 49.94720 8.86080 1481 ft 134 kts 100°
2026-05-07 19:58 49.94506 8.87567 1708 ft 147 kts 100°
2026-05-07 19:58 49.94277 8.89149 1924 ft 153 kts 100°
2026-05-07 19:59 49.94039 8.90787 2150 ft 157 kts 100°
2026-05-07 19:59 49.93796 8.92460 2365 ft 160 kts 100°
2026-05-07 19:59 49.93549 8.94157 2582 ft 162 kts 100°
2026-05-07 19:59 49.93301 8.95857 2841 ft 161 kts 100°
2026-05-07 20:00 49.93054 8.97556 3095 ft 162 kts 100°
2026-05-07 20:00 49.92804 8.99266 3352 ft 163 kts 100°
2026-05-07 20:00 49.92546 9.01041 3404 ft 175 kts 100°
2026-05-07 20:00 49.92286 9.02931 3403 ft 182 kts 95°
2026-05-07 20:01 49.92435 9.04877 3410 ft 185 kts 69°
2026-05-07 20:01 49.93001 9.06673 3403 ft 186 kts 61°
2026-05-07 20:01 49.93594 9.08463 3480 ft 183 kts 61°
2026-05-07 20:01 49.94146 9.10150 3912 ft 169 kts 61°
2026-05-07 20:02 49.94660 9.11713 4352 ft 161 kts 60°
2026-05-07 20:02 49.95159 9.13236 4806 ft 156 kts 60°
2026-05-07 20:02 49.95647 9.14722 5246 ft 153 kts 60°
2026-05-07 20:02 49.96130 9.16192 5691 ft 152 kts 60°
2026-05-07 20:03 49.96608 9.17653 6146 ft 151 kts 60°
2026-05-07 20:03 49.97085 9.19108 6600 ft 151 kts 60°
2026-05-07 20:03 49.97559 9.20557 7020 ft 152 kts 60°
2026-05-07 20:03 49.98044 9.22035 7417 ft 155 kts 60°
2026-05-07 20:04 49.98534 9.23535 7818 ft 157 kts 61°
2026-05-07 20:04 49.99030 9.25052 8225 ft 158 kts 61°
2026-05-07 20:04 49.99530 9.26582 8638 ft 160 kts 61°
2026-05-07 20:04 50.00034 9.28127 9058 ft 161 kts 61°
2026-05-07 20:05 50.00542 9.29683 9484 ft 162 kts 61°
2026-05-07 20:05 50.01054 9.31252 9913 ft 163 kts 61°
2026-05-07 20:05 50.01567 9.32827 10300 ft 164 kts 61°
2026-05-07 20:05 50.02084 9.34415 10690 ft 165 kts 61°
2026-05-07 20:06 50.02602 9.36009 11080 ft 166 kts 61°
2026-05-07 20:06 50.03117 9.37592 11472 ft 167 kts 61°
2026-05-07 20:06 50.03642 9.39208 11875 ft 168 kts 61°
2026-05-07 20:06 50.04171 9.40836 12295 ft 169 kts 62°
2026-05-07 20:07 50.04703 9.42473 12711 ft 170 kts 61°
2026-05-07 20:07 50.05238 9.44124 13130 ft 172 kts 61°
2026-05-07 20:07 50.05777 9.45788 13554 ft 172 kts 61°
2026-05-07 20:07 50.06319 9.47461 13970 ft 173 kts 61°
2026-05-07 20:08 50.06705 9.49238 14343 ft 176 kts 85°
2026-05-07 20:08 50.06720 9.51143 14733 ft 177 kts 89°
2026-05-07 20:08 50.06748 9.53058 15127 ft 177 kts 88°
2026-05-07 20:08 50.06771 9.54979 15523 ft 178 kts 88°
2026-05-07 20:09 50.06791 9.56902 15928 ft 178 kts 89°
2026-05-07 20:09 50.06810 9.58829 16333 ft 178 kts 89°
2026-05-07 20:09 50.06833 9.60758 16746 ft 178 kts 88°
2026-05-07 20:10 50.06873 9.64623 17588 ft 179 kts 88°
2026-05-07 20:10 50.06894 9.66569 18020 ft 180 kts 88°
2026-05-07 20:10 50.06913 9.68516 18441 ft 181 kts 88°
2026-05-07 20:10 50.06932 9.70481 18821 ft 181 kts 88°
2026-05-07 20:11 50.06951 9.72443 19082 ft 191 kts 88°
2026-05-07 20:11 50.06972 9.74627 19099 ft 211 kts 88°
2026-05-07 20:11 50.06994 9.77011 19100 ft 228 kts 88°
2026-05-07 20:11 50.07017 9.79540 19099 ft 239 kts 88°
2026-05-07 20:12 50.07044 9.82184 19095 ft 248 kts 88°
2026-05-07 20:12 50.07071 9.84908 19096 ft 254 kts 88°
2026-05-07 20:12 50.07098 9.87689 19093 ft 259 kts 88°
2026-05-07 20:12 50.07123 9.90470 19092 ft 262 kts 88°
2026-05-07 20:13 50.07149 9.93328 19103 ft 264 kts 88°
2026-05-07 20:13 50.07173 9.96191 19103 ft 266 kts 88°
2026-05-07 20:13 50.07201 9.99079 19103 ft 267 kts 88°
2026-05-07 20:13 50.07224 10.01974 19101 ft 268 kts 89°
2026-05-07 20:14 50.07244 10.04881 19097 ft 268 kts 89°
2026-05-07 20:14 50.07263 10.07747 19099 ft 269 kts 89°
2026-05-07 20:14 50.07283 10.10661 19103 ft 269 kts 88°
2026-05-07 20:14 50.07302 10.13573 19103 ft 269 kts 88°
2026-05-07 20:15 50.07320 10.16493 19098 ft 269 kts 89°
2026-05-07 20:15 50.07337 10.19411 19098 ft 270 kts 89°
2026-05-07 20:15 50.07354 10.22339 19099 ft 270 kts 89°
2026-05-07 20:15 50.07369 10.25280 19100 ft 272 kts 89°
2026-05-07 20:16 50.07384 10.28235 19097 ft 273 kts 89°
2026-05-07 20:16 50.07400 10.31204 19099 ft 275 kts 89°
2026-05-07 20:16 50.07414 10.34182 19098 ft 276 kts 89°
2026-05-07 20:16 50.07427 10.37131 19099 ft 276 kts 89°
2026-05-07 20:17 50.07439 10.40137 19101 ft 277 kts 89°
2026-05-07 20:17 50.07452 10.43135 19099 ft 277 kts 89°
2026-05-07 20:17 50.07461 10.46140 19100 ft 277 kts 89°
2026-05-07 20:17 50.07471 10.49152 19100 ft 277 kts 89°
2026-05-07 20:18 50.07481 10.52156 19096 ft 277 kts 89°
2026-05-07 20:18 50.07489 10.55091 19092 ft 272 kts 89°
2026-05-07 20:18 50.07497 10.58015 19089 ft 268 kts 89°
2026-05-07 20:18 50.07504 10.60914 19083 ft 265 kts 89°
2026-05-07 20:19 50.07510 10.63775 19079 ft 263 kts 89°
2026-05-07 20:19 50.07515 10.66616 19074 ft 262 kts 89°
2026-05-07 20:19 50.07520 10.69442 19074 ft 260 kts 89°
2026-05-07 20:19 50.07524 10.72253 19075 ft 259 kts 89°
2026-05-07 20:20 50.07527 10.75057 19077 ft 258 kts 89°
2026-05-07 20:20 50.07530 10.77854 19076 ft 258 kts 89°
2026-05-07 20:20 50.07532 10.80644 19078 ft 257 kts 89°
2026-05-07 20:20 50.07533 10.83428 19078 ft 257 kts 89°
2026-05-07 20:21 50.07533 10.86217 19071 ft 257 kts 89°
2026-05-07 20:21 50.07533 10.88999 19071 ft 257 kts 89°
2026-05-07 20:21 50.07533 10.91783 19070 ft 257 kts 89°
2026-05-07 20:21 50.07531 10.94530 19072 ft 257 kts 89°
2026-05-07 20:22 50.07529 10.97306 19072 ft 256 kts 89°
2026-05-07 20:22 50.07526 11.00089 19072 ft 256 kts 89°
2026-05-07 20:22 50.07523 11.02876 19069 ft 257 kts 89°
2026-05-07 20:22 50.07519 11.05653 19072 ft 257 kts 89°
2026-05-07 20:23 50.07513 11.08441 19074 ft 257 kts 89°
2026-05-07 20:23 50.07508 11.11218 19075 ft 257 kts 89°
2026-05-07 20:23 50.07502 11.14007 19074 ft 257 kts 89°
2026-05-07 20:23 50.07495 11.16756 19074 ft 257 kts 89°
2026-05-07 20:24 50.07488 11.19541 19071 ft 257 kts 89°
2026-05-07 20:24 50.07480 11.22326 19068 ft 257 kts 89°
2026-05-07 20:24 50.07471 11.25113 19068 ft 257 kts 89°
2026-05-07 20:24 50.07462 11.27898 19069 ft 257 kts 89°
2026-05-07 20:25 50.07451 11.30683 19068 ft 257 kts 89°
2026-05-07 20:25 50.07441 11.33467 19068 ft 257 kts 89°
2026-05-07 20:25 50.07429 11.36253 19067 ft 257 kts 89°
2026-05-07 20:25 50.07417 11.39038 19067 ft 257 kts 90°
2026-05-07 20:26 50.07405 11.41787 19066 ft 257 kts 90°
2026-05-07 20:26 50.07391 11.44572 19066 ft 257 kts 90°
2026-05-07 20:26 50.07377 11.47355 19094 ft 255 kts 90°
2026-05-07 20:26 50.07362 11.50134 18991 ft 261 kts 89°
2026-05-07 20:27 50.07347 11.53004 18806 ft 267 kts 89°
2026-05-07 20:27 50.07330 11.55926 18634 ft 272 kts 89°
2026-05-07 20:27 50.07312 11.58883 18450 ft 274 kts 89°
2026-05-07 20:27 50.07293 11.61826 18255 ft 276 kts 89°
2026-05-07 20:28 50.07274 11.64822 18041 ft 277 kts 89°
2026-05-07 20:28 50.07253 11.67823 17829 ft 277 kts 89°
2026-05-07 20:28 50.07232 11.70835 17614 ft 277 kts 90°
2026-05-07 20:28 50.07210 11.73838 17402 ft 277 kts 90°
2026-05-07 20:29 50.07187 11.76839 17192 ft 277 kts 90°
2026-05-07 20:29 50.07164 11.79832 16982 ft 274 kts 90°
2026-05-07 20:29 50.07138 11.82681 16672 ft 259 kts 90°
2026-05-07 20:29 50.07116 11.85446 16347 ft 249 kts 90°
2026-05-07 20:30 50.07094 11.88102 16024 ft 242 kts 90°
2026-05-07 20:30 50.07072 11.90662 15713 ft 236 kts 90°
2026-05-07 20:30 50.07049 11.93202 15404 ft 233 kts 90°
2026-05-07 20:30 50.07025 11.95707 15106 ft 230 kts 90°
2026-05-07 20:31 50.07002 11.98187 14807 ft 228 kts 90°
2026-05-07 20:31 50.06978 12.00660 14511 ft 227 kts 90°
2026-05-07 20:31 50.06954 12.03077 14226 ft 225 kts 90°
2026-05-07 20:31 50.06930 12.05513 13937 ft 224 kts 90°
2026-05-07 20:32 50.06904 12.07933 13618 ft 223 kts 90°
2026-05-07 20:32 50.06879 12.10335 13296 ft 221 kts 90°
2026-05-07 20:32 50.06854 12.12725 12976 ft 219 kts 90°
2026-05-07 20:32 50.06828 12.15096 12658 ft 218 kts 90°
2026-05-07 20:33 50.06802 12.17446 12345 ft 216 kts 90°
2026-05-07 20:33 50.06776 12.19750 12037 ft 215 kts 90°
2026-05-07 20:33 50.06749 12.22069 11732 ft 213 kts 90°
2026-05-07 20:33 50.06722 12.24370 11429 ft 212 kts 90°
2026-05-07 20:34 50.06695 12.26659 11128 ft 211 kts 90°
2026-05-07 20:34 50.06667 12.28934 10831 ft 209 kts 90°
2026-05-07 20:34 50.06639 12.31194 10536 ft 208 kts 90°
2026-05-07 20:34 50.06611 12.33436 10242 ft 206 kts 90°
2026-05-07 20:35 50.06583 12.35664 9948 ft 205 kts 90°
2026-05-07 20:35 50.06554 12.37882 9628 ft 204 kts 90°
2026-05-07 20:35 50.06526 12.40062 9309 ft 203 kts 90°
2026-05-07 20:35 50.06574 12.42254 8994 ft 202 kts 86°
2026-05-07 20:36 50.06637 12.44427 8680 ft 200 kts 87°
2026-05-07 20:36 50.06693 12.46587 8368 ft 199 kts 87°
2026-05-07 20:36 50.06754 12.48740 8060 ft 198 kts 86°
2026-05-07 20:36 50.06816 12.50828 8003 ft 186 kts 86°
2026-05-07 20:37 50.06871 12.52800 7859 ft 184 kts 87°
2026-05-07 20:37 50.06926 12.54783 7713 ft 182 kts 86°
2026-05-07 20:37 50.06963 12.56096 7624 ft 186 kts 86°
2026-05-07 20:37 50.07020 12.58155 7508 ft 194 kts 87°
2026-05-07 20:38 50.07096 12.60981 7355 ft 199 kts 87°
2026-05-07 20:38 50.07136 12.62447 7277 ft 201 kts 87°
2026-05-07 20:38 50.07194 12.64615 7158 ft 203 kts 87°
2026-05-07 20:38 50.07252 12.66810 7040 ft 204 kts 87°
2026-05-07 20:39 50.07311 12.69024 6919 ft 204 kts 87°
2026-05-07 20:39 50.07369 12.71237 6795 ft 205 kts 87°
2026-05-07 20:39 50.07427 12.73455 6672 ft 205 kts 87°
2026-05-07 20:39 50.07484 12.75672 6552 ft 205 kts 87°
2026-05-07 20:40 50.07540 12.77858 6427 ft 204 kts 87°
2026-05-07 20:40 50.07597 12.80071 6296 ft 204 kts 87°
2026-05-07 20:40 50.07653 12.82285 6166 ft 203 kts 87°
2026-05-07 20:40 50.07708 12.84487 6034 ft 203 kts 87°
2026-05-07 20:41 50.07763 12.86661 5906 ft 203 kts 87°
2026-05-07 20:41 50.07816 12.88824 5770 ft 191 kts 87°
2026-05-07 20:41 50.07863 12.90787 5618 ft 173 kts 88°
2026-05-07 20:41 50.07907 12.92600 5463 ft 162 kts 87°
2026-05-07 20:42 50.07949 12.94319 5312 ft 156 kts 88°
2026-05-07 20:42 50.07989 12.95982 5167 ft 153 kts 88°
2026-05-07 20:42 50.08030 12.97656 5042 ft 160 kts 87°
2026-05-07 20:42 50.08068 12.99415 4922 ft 164 kts 90°
2026-05-07 20:43 50.07784 13.01129 4798 ft 165 kts 115°
2026-05-07 20:43 50.07316 13.02769 4678 ft 166 kts 114°
2026-05-07 20:43 50.06861 13.04437 4552 ft 167 kts 113°
2026-05-07 20:43 50.06412 13.06070 4503 ft 163 kts 113°
2026-05-07 20:44 50.05970 13.07667 4496 ft 159 kts 113°
2026-05-07 20:44 50.05538 13.09230 4489 ft 156 kts 113°
2026-05-07 20:44 50.05110 13.10775 4491 ft 154 kts 114°
2026-05-07 20:44 50.04688 13.12299 4491 ft 153 kts 114°
2026-05-07 20:45 50.04268 13.13813 4489 ft 152 kts 114°
2026-05-07 20:45 50.03890 13.15337 4492 ft 150 kts 101°
2026-05-07 20:45 50.03958 13.16938 4493 ft 149 kts 70°
2026-05-07 20:45 50.04500 13.18285 4495 ft 145 kts 41°
2026-05-07 20:46 50.05314 13.19045 4488 ft 128 kts 19°
2026-05-07 20:46 50.06086 13.19562 4488 ft 119 kts 20°
2026-05-07 20:46 50.06840 13.20074 4486 ft 118 kts 20°
2026-05-07 20:46 50.07599 13.20584 4494 ft 121 kts 20°
2026-05-07 20:47 50.08377 13.21106 4500 ft 122 kts 21°
2026-05-07 20:47 50.09160 13.21630 4504 ft 122 kts 20°
2026-05-07 20:47 50.09938 13.22151 4503 ft 122 kts 20°
2026-05-07 20:47 50.10740 13.22586 4504 ft 122 kts
2026-05-07 20:48 50.11538 13.22279 4512 ft 118 kts 327°
2026-05-07 20:48 50.12083 13.21352 4508 ft 117 kts 293°
2026-05-07 20:48 50.12401 13.20186 4508 ft 117 kts 293°
2026-05-07 20:48 50.12729 13.19029 4510 ft 118 kts 292°
2026-05-07 20:49 50.13051 13.17867 4509 ft 115 kts 292°
2026-05-07 20:49 50.13362 13.16741 4503 ft 113 kts 292°
2026-05-07 20:49 50.13670 13.15632 4493 ft 110 kts 292°
2026-05-07 20:49 50.13970 13.14548 4498 ft 109 kts 292°
2026-05-07 20:50 50.14280 13.13420 4507 ft 116 kts 292°
2026-05-07 20:50 50.14606 13.12240 4508 ft 119 kts 292°
2026-05-07 20:50 50.14918 13.11114 4498 ft 112 kts 292°
2026-05-07 20:50 50.15226 13.09996 4392 ft 113 kts 292°
2026-05-07 20:51 50.15541 13.08853 4243 ft 115 kts 292°
2026-05-07 20:51 50.15859 13.07701 4087 ft 116 kts 293°
2026-05-07 20:51 50.16173 13.06558 3926 ft 113 kts 293°
2026-05-07 20:51 50.16483 13.05434 3776 ft 112 kts 294°
2026-05-07 20:52 50.16791 13.04315 3621 ft 113 kts 294°
2026-05-07 20:52 50.17106 13.03179 3472 ft 115 kts 295°
2026-05-07 20:52 50.17424 13.02021 3316 ft 117 kts 295°
2026-05-07 20:52 50.17734 13.00885 3159 ft 115 kts 295°
2026-05-07 20:53 50.18053 12.99732 2991 ft 116 kts 295°
2026-05-07 20:53 50.18363 12.98601 2825 ft 106 kts 295°
2026-05-07 20:53 50.18648 12.97562 2679 ft 105 kts 294°
2026-05-07 20:53 50.18934 12.96505 2552 ft 106 kts 293°
2026-05-07 20:54 50.19216 12.95417 2396 ft 108 kts 293°
2026-05-07 20:54 50.19518 12.94352 2239 ft 109 kts 291°
2026-05-07 20:54 50.19821 12.93262 2087 ft 108 kts 293°
2026-05-07 20:54 50.20111 12.92206 1998 ft 101 kts 292°
2026-05-07 20:55 50.20349 12.91350 1994 ft 69 kts 294°
2026-05-07 20:55 50.20488 12.90851 1993 ft 35 kts 292°
2026-05-07 20:55 50.20580 12.90501 1988 ft 34 kts 292°
2026-05-07 20:55 50.20641 12.90320 1989 ft 10 kts 302°
2026-05-07 20:56 50.20622 12.90362 1988 ft 17 kts 105°
2026-05-07 20:56 50.20559 12.90586 1988 ft 27 kts 114°
2026-05-07 20:56 50.20477 12.90887 1994 ft 32 kts 113°
2026-05-07 20:56 50.20403 12.91160 1997 ft 22 kts 112°
2026-05-07 20:57 50.20357 12.91248 1996 ft 9 kts 198°
2026-05-07 20:57 50.20280 12.91198 1989 ft 11 kts 202°
2026-05-07 20:57 50.20240 12.91192 1989 ft 4 kts 154°
2026-05-07 20:57 50.20212 12.91205 1989 ft 2 kts 199°
2026-05-07 20:58 50.20207 12.91200 1989 ft 1 kts 208°
2026-05-07 20:58 50.20205 12.91199 1989 ft 0 kts 206°